Find Starlink 2387

NORAD ID: 47806 Int'l Des: 2021-018 Owner: SPXS Country: US Constellation: starlink operational
LEOCIRCULAR

Current View

Loading 3D Globe...

About Starlink 2387

Starlink 2387 (NORAD 47806) is a starlink constellation satellite (v1.0) launched Mar 11, 2021 by SPXS of US. It operates in LEO, CIRCULAR orbit with a mass of 260.00 kg.

About Starlink 2387

Description loading...

Upcoming Passes

Passes for default location (London). Set your location on the main map for personalized predictions.

Altitude History

Loading altitude history...

Two-Line Element Set

1 47806U 21018V 26166.68031820 .00003262 00000-0 11682-3 0 9990
2 47806 53.1606 147.1229 0001286 81.5895 278.5252 15.31704472291790
Epoch: Jun 15, 2026 • Age: 14 hours

Current Status

Altitude 476.3 km
Velocity 7.63 km/s
Sub-Earth Point -19.21°S, 130.08°E
Launch Date Mar 11, 2021
Age 5.2 years
Type internet

Technical Details

Classification Payload
Mass 260.00 kg
Dry Mass 248.00 kg
Total Mass 260.00 kg
Length 0.20 m
Diameter 2.80 m
Span 9.00 m
Shape Box + pan
Manufacturer SPXS
Bus Type Starlink
Phase Status In Orbit
Owner/State SPXS/US

Most Searched